{"data":{"norad_id":62799,"intl_designator":"2025-016Q","name":"QIANFAN-69","alt_names":[],"object_type":"PAYLOAD","status":"ACTIVE","operator":null,"country":"PRC","launch_date":"2025-01-23","launch_site_code":"TAISC","launch_vehicle":null,"mission":null,"orbit_class":"UNKNOWN","rcs_meters":null,"size_class":null,"mass_kg":null,"dimensions":null,"purposes":[],"wikipedia_slug":null,"has_3d_model":false,"image_url":null,"decayed_at":null,"tle_current":{"epoch":"2026-09-22T21:02:47.192640Z","epoch_age_seconds":112937,"freshness":"FRESH","line1":"1 62799U 25016Q   26265.87693510  .00000057  00000+0  69033-4 0  9993","line2":"2 62799  88.9649  73.3966 0014206 240.8433 119.1297 13.51024525 85641","mean_motion":13.51024525,"eccentricity":0.0014206,"inclination_deg":88.9649,"raan_deg":73.3966,"arg_perigee_deg":240.8433,"mean_anomaly_deg":119.1297,"bstar":6.9033e-5,"rev_number":8564,"period_min":106.58577793027,"perigee_km":1057.9127849309,"apogee_km":1079.0701457266,"semimajor_km":7446.6284653288,"source":"CELESTRAK","updated_at":"2026-09-23T09:00:21.637146Z"}}}